| time (UTC) | temp C | wind direction | speed KPH | gust KPH | rain 1hr cm | rain 24hr cm | rain mn cm | humidity % | barometer mb |
| 20260504214555 | 21 | 216 | 4.8 | 14.5 | 0.00 | 0.00 | 0.00 | 27 | 1008.0 |
| 20260504213107 | 21 | 198 | 6.4 | 14.5 | 0.00 | 0.00 | 0.00 | 26 | 1008.2 |
| 20260504211547 | 21 | 212 | 6.4 | 16.1 | 0.00 | 0.00 | 0.00 | 26 | 1008.3 |
| 20260504210046 | 20 | 243 | 6.4 | 19.3 | 0.00 | 0.00 | 0.00 | 28 | 1008.4 |
| 20260504204545 | 21 | 224 | 6.4 | 17.7 | 0.00 | 0.00 | 0.00 | 27 | 1008.6 |
| 20260504203043 | 21 | 200 | 3.2 | 20.9 | 0.00 | 0.00 | 0.00 | 25 | 1008.7 |
| 20260504201540 | 21 | 236 | 8.0 | 20.9 | 0.00 | 0.00 | 0.00 | 25 | 1009.0 |
| 20260504200038 | 21 | 225 | 6.4 | 24.1 | 0.00 | 0.00 | 0.00 | 27 | 1009.0 |
| 20260504194535 | 20 | 224 | 6.4 | 25.7 | 0.00 | 0.00 | 0.00 | 29 | 1009.1 |
| 20260504193048 | 21 | 205 | 9.7 | 24.1 | 0.00 | 0.00 | 0.00 | 26 | 1009.4 |
| 20260504191534 | 21 | 238 | 8.0 | 22.5 | 0.00 | 0.00 | 0.00 | 27 | 1009.6 |
| 20260504190034 | 20 | 254 | 9.7 | 16.1 | 0.00 | 0.00 | 0.00 | 28 | 1009.6 |
| 20260504184528 | 21 | 211 | 6.4 | 16.1 | 0.00 | 0.00 | 0.00 | 28 | 1009.8 |
| 20260504183026 | 20 | 193 | 8.0 | 24.1 | 0.00 | 0.00 | 0.00 | 29 | 1010.1 |
| 20260504181523 | 20 | 223 | 11.3 | 29.0 | 0.00 | 0.00 | 0.00 | 27 | 1010.1 |
| 20260504180020 | 19 | 209 | 6.4 | 29.0 | 0.00 | 0.00 | 0.00 | 29 | 1010.1 |
| 20260504174520 | 20 | 211 | 6.4 | 14.5 | 0.00 | 0.00 | 0.00 | 26 | 1010.4 |
| 20260504173015 | 18 | 227 | 8.0 | 27.4 | 0.00 | 0.00 | 0.00 | 32 | 1010.5 |
| 20260504171511 | 19 | 211 | 9.7 | 17.7 | 0.00 | 0.00 | 0.00 | 30 | 1010.8 |
| 20260504160104 | 17 | 200 | 6.4 | 16.1 | 0.00 | 0.00 | 0.00 | 27 | 1011.7 |
| 20260504081535 | 5 | 360 | 1.6 | 3.2 | 0.00 | 0.00 | 0.00 | 50 | 1014.1 |
| 20260504050010 | 7 | 360 | 3.2 | 6.4 | 0.00 | 0.00 | 0.00 | 46 | 1013.7 |
| 20260504044509 | 7 | 360 | 1.6 | 4.8 | 0.00 | 0.00 | 0.00 | 45 | 1013.6 |
| 20260504043012 | 7 | 360 | 3.2 | 4.8 | 0.00 | 0.00 | 0.00 | 45 | 1013.6 |
| 20260504041506 | 7 | 360 | 1.6 | 6.4 | 0.00 | 0.00 | 0.00 | 46 | 1013.6 |
| 20260504040008 | 6 | 360 | 0.0 | 3.2 | 0.00 | 0.00 | 0.00 | 46 | 1013.4 |
| 20260504034501 | 6 | 360 | 0.0 | 3.2 | 0.00 | 0.00 | 0.00 | 47 | 1013.4 |
| 20260504033002 | 7 | 360 | 0.0 | 0.0 | 0.00 | 0.00 | 0.00 | 45 | 1013.3 |
| 20260504031502 | 7 | 360 | 0.0 | 3.2 | 0.00 | 0.00 | 0.00 | 43 | 1013.3 |
| 20260504030001 | 7 | 360 | 1.6 | 4.8 | 0.00 | 0.00 | 0.00 | 42 | 1013.3 |
| 20260504024601 | 7 | 360 | 0.0 | 1.6 | 0.00 | 0.00 | 0.00 | 42 | 1013.3 |
| 20260504023100 | 7 | 360 | 3.2 | 4.8 | 0.00 | 0.00 | 0.00 | 43 | 1013.3 |
| 20260504021602 | 7 | 360 | 0.0 | 1.6 | 0.00 | 0.00 | 0.00 | 46 | 1013.3 |
| 20260504020114 | 7 | 360 | 0.0 | 1.6 | 0.00 | 0.00 | 0.00 | 47 | 1013.4 |
| 20260504014605 | 7 | 360 | 0.0 | 0.0 | 0.00 | 0.00 | 0.00 | 45 | 1013.1 |
| 20260504013106 | 7 | 360 | 0.0 | 0.0 | 0.00 | 0.00 | 0.00 | 43 | 1013.0 |
| 20260504011559 | 8 | 238 | 0.0 | 3.2 | 0.00 | 0.00 | 0.00 | 42 | 1012.9 |
| 20260504010056 | 8 | 238 | 0.0 | 4.8 | 0.00 | 0.00 | 0.00 | 39 | 1012.8 |
| 20260504004559 | 8 | 360 | 0.0 | 3.2 | 0.00 | 0.00 | 0.00 | 42 | 1012.7 |
| 20260504003057 | 9 | 360 | 0.0 | 3.2 | 0.00 | 0.00 | 0.00 | 41 | 1012.6 |
| 20260504001559 | 10 | 360 | 0.0 | 3.2 | 0.00 | 0.00 | 0.00 | 37 | 1012.4 |
| 20260504000057 | 11 | 238 | 0.0 | 3.2 | 0.00 | 0.00 | 0.00 | 35 | 1012.4 |
| 20260503234553 | 11 | 360 | 1.6 | 4.8 | 0.00 | 0.00 | 0.00 | 32 | 1012.3 |
| 20260503233054 | 11 | 360 | 1.6 | 12.9 | 0.00 | 0.00 | 0.00 | 31 | 1012.2 |
| 20260503231552 | 12 | 360 | 3.2 | 9.7 | 0.00 | 0.00 | 0.00 | 30 | 1012.2 |
| 20260503224555 | 12 | 360 | 8.0 | 14.5 | 0.00 | 0.00 | 0.00 | 28 | 1012.2 |
| 20260503223048 | 12 | 360 | 4.8 | 8.0 | 0.00 | 0.00 | 0.00 | 28 | 1012.0 |
| 20260503221548 | 13 | 360 | 1.6 | 11.3 | 0.00 | 0.00 | 0.00 | 28 | 1012.0 |
| 20260503220047 | 12 | 207 | 1.6 | 8.0 | 0.00 | 0.00 | 0.00 | 28 | 1012.2 |